sat.trackr.live / text

‹ back to catalog

STARLINK-34760

NORAD 65359 · 2025-190J

PAYLOAD ACTIVE UNKNOWN

§ Identity

Operator
Country
US
Launch date
2025-08-28
Launch site
AFETR
Launch vehicle
Mass (kg)
RCS (m²)

Purposes: comms

External: N2YO · Heavens-Above · Gunter

§ Orbital elements

Epoch: 2026-05-25T01:53:24.006048Z

Period
94.10 min
Inclination
53.1591°
Eccentricity
0.0001727
Mean motion
15.30213689 rev/d
Perigee alt
474.0 km
Apogee alt
476.4 km
Semi-major
6,853.3 km
B*
6.2155e-4
RAAN
173.1489°
Arg perigee
81.4040°
Mean anomaly
278.7156°
Rev number
4,098

§ Raw data

STARLINK-347601 65359U 25190J   26145.07875007  .00018102  00000+0  62155-3 0  99902 65359  53.1591 173.1489 0001727  81.4040 278.7156 15.30213689 40986

JSON: /api/v1/satellites/65359 · /tle

For live sub-satellite position, see the globe view (requires WebGL).

§ Visibility from observer

Set your observer location to see the next 7 days of passes ≥ 10°. The values pass through the URL so the page stays shareable.

No JS? Fill the form by hand. The geolocation button needs JavaScript.